#timestamp,LO_Frequency,Hit,StdDev 
1634950815.5,286047002.3,N
1634950835.3,286046996.9,N
1634950855.2,286046998.5,N
1634950875.9,286046997.6,N
1634950895.7,286046993.3,N
1634950915.6,286046992.3,N
1634950935.4,286046990.7,N
1634950955.3,286046988.8,N
1634950975.1,286046988.6,N
1634950976.0,286046988.6,N
1634950995.8,286046992.8,N
1634951015.7,286046994.2,N
1634951035.5,286046998.0,N
1634951055.3,286046995.9,N
1634951075.2,286046998.4,N
1634951095.0,286047007.6,N
1634951095.9,286047007.6,N
1634951115.8,286047007.7,N
1634951135.6,286047005.8,N
1634951155.4,286047008.9,N
1634951175.3,286047005.0,N
1634951195.1,286047004.3,N
1634951215.9,286046998.3,N
1634951235.7,286046999.7,N
1634951255.5,286047005.8,N
1634951275.4,286047005.9,N
1634951295.2,286047002.2,N
1634951315.0,286047002.3,N
1634951315.9,286047002.3,N
1634951335.8,286047000.9,N
1634951355.6,286046997.6,N
1634951375.5,286046993.3,N
1634951395.3,286046997.2,N
1634951415.1,286047003.0,N
1634951435.9,286047002.9,N
1634951455.7,286047001.9,N
1634951475.5,286046997.7,N
1634951525.4,286046995.4,E
1634951535.3,286046996.4,N
1634951555.2,286046997.1,P
1634951575.0,286046998.8,P
1634951575.9,286046998.8,N
1634951595.7,286046998.4,N
1634951615.6,286046999.4,N
1634951635.4,286046996.3,Y
1634951655.3,286047001.6,P
1634951675.1,286047006.1,P
1634951676.0,286047006.1,N
1634951695.8,286047009.8,N
1634951715.7,286047012.4,Y
1634951735.5,286047002.8,P
1634951755.3,286047004.0,P
1634951775.2,286047004.1,P
1634951795.0,286047005.4,Y
1634951795.9,286047005.4,P
1634951815.8,286047003.1,P
1634951835.6,286047000.6,N
1634951855.4,286047001.4,N
1634951875.3,286046999.7,N
1634951895.1,286046996.8,N
1634951915.9,286046997.6,N
1634951935.7,286046998.7,N
1634951955.5,286046999.9,N
1634951975.4,286046997.4,N
1634951995.2,286047001.2,N
1634952015.0,286047003.7,N
1634952015.9,286047003.7,N
1634952035.8,286047005.7,N
1634952055.6,286046998.1,N
1634952075.5,286047002.6,N
1634952095.3,286047002.2,N
1634952115.1,286047006.2,N
1634952135.9,286047005.2,N
1634952155.7,286047003.9,N
1634952175.5,286047004.0,N
1634952195.4,286046997.4,N
1634952215.2,286046996.2,N
1634952235.0,286046994.5,N
1634952236.0,286046994.5,N
1634952255.8,286047000.4,N
1634952275.6,286046999.5,N
1634952295.5,286047001.6,N
1634952315.3,286047007.3,N
1634952335.1,286047011.5,Y
1634952355.9,286047010.0,P
1634952375.7,286047008.9,N
1634952395.6,286047010.7,N
1634952415.4,286047004.9,N
1634952435.2,286047005.7,N
1634952455.1,286047008.6,N
1634952456.0,286047008.6,N
1634952475.8,286047006.3,N
1634952495.6,286047005.5,N
1634952515.5,286047008.4,Y
1634952535.3,286046998.2,P
1634952555.2,286046998.9,N
1634952575.9,286047004.1,N
1634952595.7,286047007.0,N
1634952615.6,286047006.3,N
1634952635.4,286047006.6,N
1634952655.2,286047004.3,N
1634952675.1,286047006.0,N
1634952676.0,286047006.0,N
1634952695.8,286047002.9,N
1634952715.7,286047012.0,Y
1634952735.5,286047004.3,P
1634952755.3,286047003.2,P
1634952775.2,286047004.2,P
1634952795.0,286047004.4,Y
1634952795.9,286047004.4,P
1634952815.8,286047001.1,P
1634952835.6,286046998.7,N
1634952855.4,286047002.5,N
1634952875.3,286047002.9,N
1634952895.1,286046998.2,N
1634952915.8,286047003.3,N
1634952935.7,286046998.1,N
1634952955.5,286046996.6,N
1634952975.4,286046997.1,N
1634952995.2,286046993.3,N
1634953015.0,286046995.9,N
1634953015.9,286046995.9,N
1634953035.8,286046999.1,N
1634953055.6,286046997.0,N
1634953075.4,286046998.6,N
1634953095.3,286047005.6,N
1634953115.1,286046997.6,N
1634953135.9,286047002.5,N
1634953155.7,286047000.1,N
1634953175.5,286047001.9,N
1634953195.4,286047002.7,N
1634953215.2,286047005.4,N
1634953235.1,286047010.5,Y
1634953236.0,286047010.5,P
1634953255.8,286047009.8,N
1634953275.6,286047009.7,N
1634953295.5,286047011.5,N
1634953315.3,286047010.0,N
1634953335.2,286047011.6,Y
1634953355.9,286046996.8,P
1634953375.7,286047000.9,N
1634953395.6,286047000.9,N
1634953415.4,286047004.3,N
1634953435.2,286047004.1,N
1634953455.1,286046999.8,N
1634953456.0,286046999.8,N
1634953475.8,286047000.3,N
1634953495.7,286047003.3,N
1634953515.5,286047004.8,N
1634953535.3,286047006.1,N
1634953555.2,286047010.5,Y
1634953575.0,286047004.7,P
1634953575.9,286047004.7,P
1634953595.8,286047006.2,P
1634953615.6,286047004.9,Y
1634953635.4,286046999.0,P
1634953655.3,286047002.7,N
1634953675.1,286046999.7,N
1634953695.8,286047000.7,N
1634953715.7,286047000.9,N
1634953735.5,286047002.6,N
1634953755.4,286047002.9,N
1634953775.2,286047003.5,N
1634953795.0,286047005.5,Y
1634953795.9,286047005.5,P
1634953815.8,286047000.0,N
1634953835.6,286047003.9,N
1634953855.5,286047000.9,N
1634953875.3,286047001.1,N
1634953895.1,286047003.7,N
1634953915.9,286047007.6,Y
1634953935.7,286047001.3,P
1634953955.5,286047003.8,P
1634953975.4,286047004.8,P
1634953995.2,286047007.9,Y
1634954015.1,286047004.8,P
1634954016.0,286047004.8,P
1634954035.8,286047003.0,P
1634954055.6,286047006.4,Y
1634954075.5,286047002.1,P
1634954095.3,286047001.5,N
1634954115.2,286046999.0,N
1634954135.9,286046999.0,N
1634954155.7,286046999.3,N
1634954175.6,286047003.1,N
1634954195.4,286047000.2,N
1634954215.2,286047002.1,N
1634954235.1,286047002.3,N
1634954236.0,286047002.3,N
1634954255.8,286046996.9,N
1634954275.7,286047000.0,N
1634954295.5,286046996.5,N
1634954315.3,286047001.1,N
1634954335.2,286047002.8,N
1634954355.0,286046999.1,N
1634954355.9,286046999.1,N
1634954375.8,286047003.6,N
1634954395.6,286047003.6,N
